Location: Whelan
(46.7841°N, 117.1166°W)
Time: 01:10:37
(UTC+00:00)

Envisat - Pass Details

Date: 21 April 2024
Orbit: 762 x 764 km, 98.3° (Epoch: 24 May)

Event Time Altitude Azimuth Distance (km) Brightness Sun altitude
Rises 11:39:13 0° 10° (N) 3,240 6.9 -11.6°
Reaches altitude 10° 11:41:33 10° 7° (N) 2,309 6.0 -11.3°
Maximum altitude 11:46:33 61° 289° (WNW) 869 3.1 -10.5°
Drops below altitude 10° 11:51:31 10° 210° (SSW) 2,292 4.9 -9.8°
Enters shadow 11:52:00 - 209° (SSW) 2,483 5.1 -9.7°
